Vertical_Velocity
-1 2 1 -1 -2 -0 2 2 1 1 -2 1 0 -1 1 -1 -1 -3 3 -0 1 -0 -1 -1 -1 0 -1 -2 -1 -1 -1 -1 -1 -1 -1 -1 -1 -1 -0 -1 0 -0 0 -1 0 2 1 0 0
0 -0 2 -1 -3 1 2 1 0 -2 1 0 -0 -2 -0 -2 -1 -1 0 -1 -1 1 -0 -1 -1 -1 -2 -2 -1 -0 -1 -1 0 -0 -1 -1 -1 -1 -1 -2 -2 -1 1 -1 0 0 1 1 1
1 0 -2 -3 -3 5 4 -1 -0 3 2 0 -0 -2 -0 -1 -1 -1 1 -0 -0 -0 -0 -1 -2 -2 -1 -1 -1 -1 -1 -0 -1 -1 -1 -1 -1 -0 -1 -0 -0 -1 -1 -0 0 0 0 0 1
-1 -2 -2 -7 6 1 3 -2 0 2 0 -1 1 0 -0 -0 -1 1 -1 0 0 -1 -1 -1 -1 -2 0 -1 -3 -0 -0 0 0 -0 -1 -0 -0 -1 -1 -1 -1 -1 -0 0 0 0 -0 0 0
-2 1 -8 1 5 6 2 -3 2 0 -0 -3 2 1 1 2 1 -1 -2 -0 -1 0 -1 -2 0 0 -1 0 -1 -1 -1 -1 -1 -1 -1 -1 -1 -1 -1 -1 -1 -1 -0 -1 -0 -0 -0 1 -0
-4 -3 -6 4 8 7 4 -1 -4 3 -2 -3 -1 1 2 1 1 1 -1 -0 1 -0 1 -0 -0 -1 -2 -1 -1 -2 -1 -1 -1 -1 -1 -1 -2 -1 -1 -1 -0 1 1 0 1 1 -1 0 -2
-2 1 3 4 6 -0 -1 -1 -0 -6 2 -4 3 -1 6 0 2 0 1 -0 0 0 0 1 -0 0 1 0 -1 -2 -1 -1 -0 -1 -2 -2 -2 -2 -1 -1 -1 -1 -0 -0 0 1 0 -0 1
-3 -2 -4 -0 5 8 -2 -4 -4 -2 1 -0 -1 0 4 -2 -1 1 2 2 2 0 1 1 0 1 0 -1 -0 -1 -0 -0 -2 -1 -2 -1 -1 -1 -1 -1 -1 -2 -0 -0 1 0 1 -1 -1
3 -14 -3 2 6 16 -0 -5 -4 -0 5 -0 -0 4 2 -0 -0 1 1 2 2 0 -0 1 0 -1 -1 -0 1 1 -0 -0 -0 -1 -1 -1 -1 -1 -1 -1 -2 -1 -1 -1 -1 -1 1 0 -1
-10 -5 7 6 8 6 -5 -3 -3 -4 3 -0 1 3 3 2 -1 1 2 -0 1 -0 -2 -1 -0 0 0 0 1 0 1 0 0 1 0 0 -0 -1 -1 -1 -2 -1 -1 -0 0 1 1 1 0
-9 -4 3 17 2 1 -6 -6 -1 -2 0 2 0 2 2 2 3 -2 0 -1 1 2 1 1 1 0 1 1 1 2 -1 1 0 0 -1 -0 -0 -1 -0 -1 -1 -1 -2 -2 -1 1 3 0 1
-6 3 9 7 -1 -0 -4 -3 0 -1 6 -2 -1 -2 0 2 4 2 -1 -3 2 1 1 1 -0 0 1 -0 1 -0 -0 -0 1 -1 -1 -1 -1 -1 1 0 -0 -0 -1 -1 -3 -2 -1 0 -3
-2 3 6 4 -3 -1 -9 -2 -1 4 -1 -1 1 -2 -0 4 3 2 -0 0 1 3 -2 -2 -0 1 -0 0 -0 -0 -0 -0 -1 -0 -0 -1 -2 -1 -0 -1 -1 -0 -2 -3 -1 -3 -1 -3 3
0 0 3 -2 0 -1 -5 3 -18 14 4 -2 -3 -1 -2 -4 1 4 1 0 4 -0 2 -3 -0 -1 0 -1 -1 -1 -1 -1 -0 -0 -2 -1 -1 -2 -1 -1 -1 0 -0 -2 -2 -6 3 -4 -1
-4 -1 -0 2 5 -2 -3 -5 -2 5 -8 0 1 -3 -2 -0 -5 5 1 3 3 6 -0 5 -3 -2 -0 -1 -1 0 1 -1 1 -0 0 -1 -1 -2 -0 -0 -2 -1 -2 1 -2 -0 -1 0 -4
-5 -2 -2 4 1 6 -7 16 0 10 -3 0 -3 1 -1 2 3 1 1 2 -0 3 1 -4 -1 2 0 0 -2 0 1 5 3 1 1 1 0 -1 1 -0 -2 -2 -2 1 -0 -1 -1 -1 -2
-8 -4 2 5 3 -5 -16 19 -5 7 -3 4 2 -1 -1 5 -1 8 3 -4 -2 0 -1 1 -2 1 -2 -2 1 2 -1 1 3 0 2 -1 1 1 -1 -2 -3 1 -2 -0 -2 -1 1 -2 1
2 12 15 5 -3 -13 -14 8 5 4 -2 -1 4 8 -1 -4 11 -1 -3 -3 -4 -1 -0 2 -1 2 3 -2 -2 0 1 1 5 5 2 -1 3 -1 -1 -2 -1 -0 1 -0 -2 -0 -1 -1 1
-4 -5 -4 2 -2 -6 -2 -5 6 6 -6 2 1 0 2 3 1 2 1 -2 -2 -3 1 3 1 7 -3 -0 -1 -1 3 -3 2 -0 3 2 0 0 -0 -2 -1 1 0 -2 -1 -0 -2 -0 -1
-1 -2 4 -1 -2 -7 -9 0 8 3 -1 0 0 6 3 -1 3 -0 -5 -5 0 -1 -4 -0 1 1 -0 1 8 -7 -0 -1 1 1 2 3 4 6 6 4 -1 2 1 -0 3 -1 -2 -0 -2
-1 1 4 -2 -6 -7 -4 6 2 -1 5 -3 -4 -1 -2 -2 -1 -3 -6 -4 -5 0 -2 -6 -1 -1 2 5 5 -1 -1 4 2 7 3 6 4 5 8 0 0 -3 1 3 0 0 -0 -1 -1
1 3 -4 -1 -6 -1 -1 -5 15 -2 -8 -1 -4 2 -7 -2 3 -5 -5 -2 -4 -2 4 -3 -4 -1 -2 -1 -1 9 3 -1 7 1 -1 1 1 3 2 3 2 -0 2 -0 0 8 7 4 -0
1 -1 -2 -3 -3 -2 -3 -6 20 1 -5 -1 -3 -4 -5 -1 -4 -1 1 3 -1 -1 -2 2 -2 -3 2 -3 -6 -2 -1 9 5 1 2 -0 1 1 2 -0 4 -1 -1 2 1 1 0 3 3
2 -0 -1 -2 -2 -2 -0 1 4 -2 -0 -3 -1 -6 -7 -7 -2 -2 -0 -1 -1 1 -2 -2 -2 -0 -1 -1 -2 -1 -2 -1 5 6 0 5 -0 1 2 3 -3 4 3 3 2 0 1 2 2
3 -1 -3 -4 -3 3 1 1 -2 1 -4 -4 -6 -7 -5 -3 -2 1 -0 -0 0 -2 -0 1 3 0 -1 -1 -1 -1 -1 -5 -1 6 2 -0 2 4 5 2 3 -1 1 2 5 2 3 0 2
0 -2 -1 -1 -0 5 2 1 -1 -1 -5 -5 -4 -2 0 1 2 -0 -2 0 1 -0 -1 -1 -1 0 0 -1 -3 -2 -1 -2 -0 -1 8 5 3 5 1 2 2 5 2 0 1 2 2 -2 3
5 1 -0 1 1 1 3 2 -2 -6 -1 -4 -6 2 3 0 1 -2 -3 -1 1 1 4 5 2 3 1 5 3 2 4 -2 -0 -1 -4 6 7 9 5 3 4 5 4 3 -2 3 -2 -2 1
0 -0 -0 3 -0 2 5 -1 -3 -6 -4 -3 3 -4 -2 -1 -0 -4 -0 -1 -1 1 4 -1 -2 6 5 1 -3 3 1 1 3 3 6 4 5 3 6 3 5 4 5 5 -1 1 -2 1 1
-2 4 0 -1 0 2 4 -2 -5 -5 -2 -1 -3 1 3 1 3 -2 -3 -3 -4 -3 -3 3 3 2 3 1 4 2 4 7 2 -2 2 -0 4 5 6 11 10 2 5 2 2 -1 1 3 1
2 2 4 -2 2 2 -1 -4 -5 -3 0 1 2 -1 -2 -3 -1 -1 1 3 1 -1 -1 -5 -6 -5 2 6 13 12 9 6 1 -3 -3 -0 3 2 -1 1 11 3 5 2 -1 3 2 3 1
Height
5806 5810 5815 5819 5826 5829 5833 5836 5839 5841 5843 5847 5849 5851 5853 5856 5858 5862 5863 5863 5864 5865 5865 5866 5866 5867 5866 5868 5869 5870 5870 5870 5870 5870 5870 5871 5871 5872 5873 5873 5874 5874 5875 5874 5874 5874 5873 5872 5872
5801 5805 5810 5813 5819 5825 5830 5831 5834 5837 5841 5843 5845 5848 5850 5852 5854 5857 5859 5860 5862 5863 5863 5863 5863 5864 5864 5865 5866 5866 5867 5868 5868 5867 5867 5868 5868 5869 5869 5870 5871 5871 5871 5871 5871 5870 5870 5870 5869
5795 5800 5805 5807 5813 5823 5827 5826 5828 5835 5836 5837 5841 5843 5846 5849 5851 5854 5856 5857 5859 5859 5860 5861 5861 5862 5862 5862 5863 5864 5865 5865 5865 5865 5865 5865 5865 5866 5866 5866 5866 5867 5867 5868 5868 5867 5867 5866 5866
5789 5794 5799 5803 5813 5819 5822 5821 5824 5830 5832 5833 5837 5840 5844 5846 5849 5851 5853 5855 5856 5856 5857 5858 5858 5859 5859 5860 5861 5861 5861 5861 5861 5861 5861 5862 5862 5862 5863 5863 5863 5863 5863 5863 5863 5863 5863 5862 5862
5782 5787 5792 5799 5811 5816 5818 5816 5820 5825 5827 5829 5832 5836 5840 5843 5845 5847 5850 5851 5852 5853 5854 5855 5856 5856 5856 5857 5858 5858 5858 5858 5858 5858 5858 5858 5858 5859 5859 5859 5859 5859 5859 5859 5859 5859 5858 5858 5858
5775 5780 5786 5796 5809 5811 5813 5812 5813 5820 5823 5825 5828 5831 5835 5838 5841 5843 5845 5847 5849 5850 5851 5851 5852 5854 5854 5854 5855 5855 5856 5855 5855 5855 5855 5855 5855 5855 5855 5855 5855 5855 5855 5855 5855 5855 5854 5854 5854
5768 5775 5783 5793 5801 5803 5808 5806 5808 5812 5817 5820 5822 5825 5831 5833 5836 5838 5840 5842 5845 5846 5847 5848 5848 5849 5850 5850 5851 5851 5852 5852 5852 5853 5853 5853 5853 5852 5852 5852 5851 5852 5852 5852 5852 5852 5851 5850 5850
5762 5768 5774 5785 5794 5800 5800 5800 5802 5806 5812 5816 5817 5820 5826 5826 5831 5833 5835 5837 5840 5841 5842 5843 5844 5844 5845 5846 5847 5847 5847 5848 5849 5849 5849 5849 5849 5849 5849 5848 5848 5848 5848 5848 5848 5847 5847 5847 5846
5756 5761 5770 5781 5788 5794 5794 5796 5797 5803 5809 5811 5813 5817 5820 5821 5826 5828 5830 5832 5833 5834 5836 5837 5838 5839 5840 5841 5842 5842 5843 5844 5844 5844 5845 5845 5845 5845 5845 5845 5845 5845 5844 5844 5844 5844 5843 5842 5842
5748 5756 5767 5774 5780 5786 5788 5790 5792 5797 5804 5806 5809 5812 5815 5817 5820 5823 5826 5827 5827 5827 5828 5831 5833 5834 5835 5836 5837 5838 5838 5838 5839 5840 5840 5840 5840 5841 5840 5841 5840 5840 5840 5840 5840 5839 5839 5838 5837
5744 5752 5759 5765 5771 5778 5781 5783 5787 5790 5795 5802 5805 5807 5810 5813 5816 5818 5820 5821 5821 5822 5824 5825 5826 5828 5830 5831 5832 5833 5833 5833 5834 5834 5835 5835 5835 5835 5835 5835 5835 5835 5835 5835 5834 5834 5834 5833 5832
5739 5746 5750 5756 5762 5769 5773 5777 5780 5784 5791 5794 5799 5801 5805 5808 5810 5812 5813 5814 5816 5817 5818 5820 5821 5823 5824 5825 5827 5827 5828 5828 5828 5829 5829 5829 5829 5829 5830 5830 5829 5829 5830 5829 5829 5829 5829 5828 5827
5732 5738 5744 5749 5754 5761 5767 5771 5774 5780 5785 5787 5793 5796 5798 5801 5804 5806 5808 5811 5813 5814 5814 5814 5815 5817 5818 5819 5820 5821 5822 5822 5821 5823 5824 5823 5823 5823 5823 5823 5823 5823 5824 5824 5823 5823 5823 5823 5822
5725 5730 5736 5742 5748 5754 5760 5764 5767 5777 5779 5782 5786 5789 5791 5793 5796 5800 5803 5805 5807 5808 5809 5808 5809 5810 5811 5813 5813 5814 5815 5815 5815 5817 5818 5817 5817 5817 5817 5817 5816 5816 5818 5818 5818 5818 5817 5817 5817
5716 5723 5729 5737 5743 5748 5753 5760 5765 5771 5771 5775 5778 5783 5784 5786 5788 5793 5796 5799 5801 5802 5801 5802 5802 5803 5805 5806 5807 5808 5808 5808 5809 5810 5811 5811 5811 5811 5811 5811 5810 5809 5811 5811 5811 5811 5811 5811 5810
5711 5717 5724 5732 5737 5743 5747 5756 5759 5764 5767 5770 5770 5775 5778 5780 5784 5786 5788 5790 5792 5793 5794 5795 5795 5796 5797 5798 5798 5799 5799 5800 5802 5804 5804 5805 5805 5804 5804 5805 5804 5804 5804 5804 5804 5804 5805 5805 5804
5705 5713 5720 5726 5731 5736 5742 5747 5753 5756 5762 5765 5767 5767 5772 5775 5776 5778 5780 5779 5781 5783 5786 5788 5788 5790 5790 5790 5791 5791 5791 5792 5794 5796 5798 5799 5798 5798 5798 5797 5796 5797 5797 5797 5798 5798 5798 5798 5798
5701 5707 5713 5718 5725 5730 5736 5738 5749 5751 5754 5758 5761 5763 5763 5766 5768 5768 5769 5771 5773 5775 5776 5779 5780 5781 5782 5783 5783 5784 5785 5786 5788 5788 5789 5790 5790 5791 5790 5790 5789 5790 5791 5791 5791 5792 5791 5792 5791
5695 5700 5706 5711 5717 5724 5730 5733 5741 5746 5747 5750 5752 5754 5755 5757 5760 5760 5761 5763 5764 5766 5768 5769 5770 5772 5772 5773 5774 5775 5777 5778 5778 5780 5780 5781 5783 5784 5784 5782 5782 5783 5785 5784 5785 5785 5784 5784 5783
5688 5695 5701 5707 5712 5717 5723 5727 5731 5738 5740 5741 5743 5745 5747 5748 5751 5752 5752 5752 5754 5755 5757 5758 5760 5760 5761 5763 5765 5766 5767 5767 5768 5769 5770 5773 5775 5775 5775 5775 5774 5774 5775 5777 5777 5777 5777 5777 5776
5684 5691 5697 5702 5707 5710 5715 5719 5724 5729 5730 5733 5733 5736 5737 5739 5741 5742 5743 5744 5744 5744 5746 5747 5750 5751 5751 5752 5754 5756 5757 5760 5760 5761 5762 5764 5765 5765 5765 5765 5765 5766 5767 5769 5768 5768 5768 5768 5767
5680 5686 5690 5695 5700 5705 5709 5711 5720 5719 5719 5723 5726 5729 5729 5732 5732 5734 5734 5734 5735 5736 5737 5737 5738 5740 5740 5741 5743 5745 5748 5750 5752 5751 5750 5751 5753 5754 5755 5757 5757 5758 5759 5760 5761 5760 5759 5758 5758
5675 5680 5685 5690 5694 5698 5702 5705 5713 5711 5710 5714 5718 5721 5722 5724 5724 5725 5726 5725 5725 5725 5726 5727 5726 5727 5728 5729 5730 5732 5733 5737 5740 5740 5741 5742 5742 5744 5746 5747 5747 5748 5749 5751 5751 5752 5752 5750 5749
5671 5676 5681 5685 5689 5693 5697 5699 5701 5706 5705 5707 5710 5713 5715 5715 5715 5716 5716 5716 5715 5715 5715 5715 5715 5716 5716 5716 5716 5719 5721 5722 5724 5726 5728 5730 5731 5732 5734 5736 5737 5738 5738 5741 5742 5741 5741 5741 5740
5668 5672 5677 5682 5685 5688 5692 5694 5696 5697 5701 5702 5704 5705 5706 5707 5708 5708 5708 5708 5707 5706 5705 5704 5704 5703 5703 5703 5703 5705 5707 5707 5710 5711 5712 5714 5717 5720 5722 5723 5726 5728 5727 5728 5731 5731 5731 5731 5731
5665 5669 5672 5676 5680 5683 5686 5687 5689 5693 5696 5697 5697 5699 5700 5700 5701 5700 5699 5698 5697 5695 5694 5692 5691 5690 5689 5688 5688 5689 5690 5691 5693 5696 5697 5700 5703 5706 5707 5710 5712 5714 5715 5717 5718 5719 5720 5719 5719
5663 5666 5670 5672 5675 5677 5681 5683 5686 5688 5689 5691 5693 5694 5694 5694 5692 5690 5689 5688 5686 5684 5681 5678 5675 5673 5670 5670 5670 5671 5673 5674 5676 5678 5680 5685 5687 5690 5693 5696 5699 5702 5703 5705 5706 5708 5709 5708 5708
5660 5663 5667 5669 5672 5675 5677 5680 5681 5683 5684 5685 5687 5686 5685 5684 5682 5680 5678 5676 5674 5671 5668 5663 5659 5657 5654 5651 5650 5651 5653 5654 5657 5659 5663 5668 5672 5677 5680 5684 5688 5689 5691 5692 5692 5694 5695 5695 5696
5656 5658 5662 5665 5668 5671 5674 5676 5677 5678 5680 5680 5678 5676 5676 5676 5674 5672 5668 5665 5661 5657 5652 5647 5643 5639 5634 5630 5629 5630 5632 5634 5637 5641 5647 5652 5657 5661 5665 5670 5674 5676 5679 5680 5680 5681 5682 5683 5684
5653 5657 5661 5663 5667 5668 5669 5672 5672 5673 5673 5673 5672 5671 5669 5666 5664 5661 5659 5656 5650 5645 5639 5631 5623 5615 5611 5607 5607 5608 5611 5614 5618 5623 5630 5637 5642 5646 5650 5655 5659 5663 5667 5669 5670 5670 5670 5671 5671